User: anonymous   Login
Location: Unspecified
(0.0000°N, 0.0000°E)
Time: 00:46:19
(UTC+00:00)
Language:

STARLINK-31795 - Orbit

View from above orbital plane
View from above orbital plane
View from above satellite
View from above satellite

Ground track
Ground track

The orbit is defined by the following mean orbital elements,

1 59645U          26145.60662200 +.00000000 +00000-0 -27474-3 0 00000
2 59645  43.0064   6.8563 0001090 286.1358  73.9374 15.27613727    03
Epoch (UTC): 25 May 2026 14:33:32
Eccentricity: 0.0001090
inclination: 43.0064°
perigee height: 482 km
apogee height: 484 km
right ascension of ascending node: 6.8563°
argument of perigee: 286.1358°
revolutions per day: 15.27613727
mean anomaly at epoch: 73.9374°

The dashed part of the orbit path shows where the satellite is in the earth's shadow,  

DLR